Content
SEND FEEDBACK

Daily
Averages
Monthly
Summary
Algeria

GUELMA, ALGERIA


Home > Africa > Algeria
Elevation: 745 feet     Latitude: 36 28N     Longitude: 007 28E

WEATHER
 
SELECT A DAY
Number of Records: 263,486;   Date Range: 2/20/97 - 7/11/14
 
SHARE

PRINT THIS DATA

[ ← Previous Day ]
WEATHER ALMANAC - FEBRUARY 13, 2013
[ Next Day → ]
[ °C ]   °F
Weather ElementAverageHighLow
Temperature45.9 °F50 °F (2:30 pm)42 °F (7:00 am)
Dewpoint43.9 °F49 °F (4:00 pm)40 °F (7:00 am)
Humidity92.1 %98 % (4:00 pm)86 % (10:00 pm)
Barometer29.96 in30.01 in (9:30 pm)29.92 in (1:00 am)
Wind Speed14.1 mph20.7 mph (7:00 am)
Weather ElementAverage
Visibility5.4 mi
Wind DirectionWSW (251.5 °)

Weather ElementTotal
Precipitation---
Heating Degree Days19 (Base 65)
Averaged from 53 records on February 13, 2013
WEATHER CONDITIONS BREAKOUT
WIND DIRECTION BREAKOUT
WEATHER BY HOUR - FEBRUARY 13, 2013
[ °C ]   °F
Local TimeTemperatureDewpointHumidityBarometerVisibilityWind DirectionWind SpeedGust SpeedPrecipitationEventsConditions
1:00 AM44.0 °F42.0 °F91 %29.92 in6.0 miSW (230°)15.0 mphThunderstormThunderstorm
1:00 AM44.6 °F42.8 °F93 %29.92 in6.2 miSW (230°)15.0 mphThunderstormThunderstorm
1:30 AM44.6 °F42.8 °F93 %29.92 in6.2 miWSW (250°)8.1 mphThunderstormThunderstorm
2:00 AM44.6 °F42.8 °F93 %29.92 in6.2 miWSW (250°)17.3 mphThunderstormThunderstorm
2:30 AM44.6 °F42.8 °F93 %29.92 in6.2 miWSW (250°)17.3 mphThunderstormThunderstorm
3:00 AM44.6 °F42.8 °F93 %29.92 in6.2 miWSW (240°)13.8 mphThunderstormThunderstorm
4:00 AM44.6 °F42.8 °F93 %29.92 in6.2 miSW (220°)18.4 mphMostly Cloudy
4:00 AM44.0 °F42.0 °F89 %29.93 in6.0 miSW (220°)18.4 mphRainLight Rain Showers
4:30 AM44.6 °F42.8 °F93 %29.92 in6.2 miSW (220°)19.6 mphRain-ThunderstormThunderstorms and Rain
5:00 AM44.6 °F42.8 °F93 %29.92 in6.2 miSW (220°)19.6 mphRain-ThunderstormThunderstorms and Rain
5:30 AM42.8 °F41.0 °F93 %29.92 in6.2 miSW (230°)18.4 mphRainRain
6:00 AM44.6 °F41.0 °F87 %29.92 in6.2 miSW (230°)18.4 mphThunderstormThunderstorm
6:30 AM42.8 °F41.0 °F93 %29.95 in4.3 miWSW (240°)19.6 mphRainRain
7:00 AM42.8 °F41.0 °F93 %29.92 in6.2 miSW (230°)20.7 mphRainLight Rain
7:00 AM42.0 °F40.0 °F90 %29.94 in6.0 miSW (230°)20.7 mphRainLight Rain
7:30 AM42.8 °F41.0 °F93 %29.95 in6.2 miWSW (250°)17.3 mphMostly Cloudy
8:00 AM42.8 °F41.0 °F93 %29.95 in6.2 miWSW (240°)18.4 mphMostly Cloudy
8:30 AM42.8 °F41.0 °F93 %29.95 in6.2 miSW (230°)11.5 mphMostly Cloudy
9:00 AM44.6 °F42.8 °F93 %29.98 in3.7 miWest (270°)18.4 mphRainRain
9:30 AM44.6 °F42.8 °F93 %29.98 in4.3 miSW (230°)12.7 mphMostly Cloudy
10:00 AM44.6 °F42.8 °F93 %29.98 in4.3 miWSW (240°)9.2 mphMostly Cloudy
10:00 AM45.0 °F43.0 °F91 %29.98 in4.0 miWSW (240°)9.2 mphRainLight Rain
10:30 AM46.4 °F44.6 °F93 %29.98 in5.0 miSW (220°)11.5 mphMostly Cloudy
11:00 AM48.2 °F46.4 °F93 %29.98 in5.0 miWest (270°)12.7 mphMostly Cloudy
11:30 AM48.2 °F44.6 °F87 %29.98 in6.2 miWSW (240°)19.6 mphMostly Cloudy
12:00 PM48.2 °F46.4 °F93 %29.95 in6.2 miWest (270°)18.4 mphMostly Cloudy
12:30 PM48.2 °F44.6 °F87 %29.95 in6.2 miWSW (240°)15.0 mphMostly Cloudy
1:00 PM48.0 °F47.0 °F94 %29.98 in6.0 miWest (280°)13.8 mphPartly Cloudy
1:00 PM48.2 °F46.4 °F93 %29.98 in6.2 miWest (280°)13.8 mphMostly Cloudy
1:30 PM48.2 °F46.4 °F93 %29.95 in4.3 miWest (270°)9.2 mphRainLight Rain Showers
2:00 PM48.2 °F46.4 °F93 %29.95 in6.2 miWest (270°)9.2 mphMostly Cloudy
2:30 PM50.0 °F46.4 °F87 %29.95 in6.2 miWest (270°)12.7 mphMostly Cloudy
3:00 PM50.0 °F46.4 °F87 %29.95 in5.0 miWest (270°)12.7 mphRainLight Rain
3:30 PM48.2 °F46.4 °F93 %29.95 in6.2 miWest (260°)8.1 mphMostly Cloudy
4:00 PM49.0 °F49.0 °F98 %29.94 in6.0 miWSW (240°)12.7 mphRainLight Rain
4:00 PM50.0 °F48.2 °F94 %29.92 in6.2 miWSW (240°)12.7 mphMostly Cloudy
4:30 PM48.2 °F46.4 °F93 %29.95 in5.0 miWSW (240°)9.2 mphRainRain Showers
5:00 PM48.2 °F44.6 °F87 %29.95 in5.0 miWSW (250°)9.2 mphRainRain
5:30 PM48.2 °F46.4 °F93 %29.95 in5.0 miWSW (240°)9.2 mphMostly Cloudy
6:00 PM48.2 °F46.4 °F93 %29.95 in5.0 miWest (270°)9.2 mphMostly Cloudy
6:30 PM46.4 °F44.6 °F93 %29.95 in4.3 miWest (280°)13.8 mphRainRain
7:00 PM47.0 °F45.0 °F91 %29.97 inWest (280°)13.8 mphRainLight Rain
7:00 PM46.4 °F44.6 °F93 %29.95 in3.1 miWest (280°)13.8 mphRainRain
7:30 PM44.6 °F42.8 °F93 %29.98 in4.3 miWest (270°)15.0 mphRainRain
8:00 PM44.6 °F42.8 °F93 %29.98 in5.0 miWest (270°)12.7 mphMostly Cloudy
8:30 PM44.6 °F42.8 °F93 %29.98 in4.3 miWest (270°)17.3 mphRainRain
9:00 PM44.6 °F42.8 °F93 %29.98 in5.0 miWest (270°)13.8 mphRainRain
9:30 PM44.6 °F42.8 °F93 %30.01 in5.0 miWest (260°)15.0 mphRainLight Rain
10:00 PM46.0 °F43.0 °F86 %30.00 in5.0 miWest (260°)12.7 mphRainLight Rain
10:00 PM46.4 °F44.6 °F93 %30.01 in5.0 miWest (260°)12.7 mphRainLight Rain
10:30 PM46.4 °F44.6 °F93 %29.98 in5.0 miWSW (240°)10.4 mphRain-ThunderstormThunderstorms and Rain
11:00 PM46.4 °F44.6 °F93 %29.98 in5.0 miNW (310°)11.5 mphThunderstormThunderstorm
11:30 PM46.4 °F44.6 °F93 %30.01 in5.0 miWest (270°)10.4 mphMostly Cloudy
Hourly data recorded from DABB, located miles away from Guelma, Algeria







STORIES FROM OUR PARTNERS